Overview Statistics Trail Chart Weather Telemetry Raw packets
 

This is the latest recevied weather packets stored in our database for station/object HB9MZI. If no packets are shown the sender has not sent any weather packets the latest 10 day(s).

<< 1 2 3 4 >>
Time Temp. Humidity Pressure Rain* Wind** Luminosity Snow
1788397076 21.11° C 73% 996.1 hPa 0 mm 0 m/s - -
1788396171 20.56° C 81% 996 hPa 0 mm 0 m/s - -
1788394354 21.11° C 80% 995.9 hPa 0 mm 0 m/s - -
1788379539 25.56° C 67% 994.9 hPa 0 mm 0 m/s - -
1788369859 27.78° C 62% 993.1 hPa 0 mm 0 m/s - -
1788242225 22.22° C 53% 995.1 hPa 0 mm 0 m/s - -
1788241318 22.22° C 51% 994.8 hPa 0 mm 0 m/s - -
1788233153 23.33° C 47% 994 hPa 0 mm 0.89 m/s, 150° - -
1788232246 23.33° C 48% 993.9 hPa 0 mm 0 m/s - -
1788231943 23.33° C 48% 993.9 hPa 0 mm 0.45 m/s, 138° - -
1788230733 23.33° C 47% 993.9 hPa 0 mm 1.79 m/s, 170° - -
1788230128 23.89° C 47% 993.9 hPa 0 mm 2.24 m/s, 118° - -
1788229523 23.89° C 47% 993.8 hPa 0 mm 3.58 m/s, 153° - -
1788229221 23.89° C 47% 993.8 hPa 0 mm 0.45 m/s, 181° - -
1788228919 23.89° C 47% 993.9 hPa 0 mm 2.24 m/s, 228° - -
1788228616 23.89° C 47% 993.8 hPa 0 mm 1.34 m/s, 166° - -
1788228314 23.89° C 47% 993.8 hPa 0 mm 4.47 m/s, 158° - -
1788228011 23.89° C 47% 993.9 hPa 0 mm 0.45 m/s, 170° - -
1788227709 23.89° C 47% 993.8 hPa 0 mm 1.34 m/s, 162° - -
1788226802 23.89° C 46% 994 hPa 0 mm 1.79 m/s, 120° - -
1788226499 23.89° C 46% 994 hPa 0 mm 0.89 m/s, 134° - -
1788226197 23.89° C 48% 993.9 hPa 0 mm 1.79 m/s, 174° - -
1788224383 24.44° C 47% 993.8 hPa 0 mm 0.89 m/s, 139° - -
1788223779 24.44° C 47% 993.8 hPa 0 mm 1.34 m/s, 152° - -
1788219242 25° C 44% 993.4 hPa 0 mm 2.24 m/s, 162° - -

* Rain latest hour (hover to see other rain measurements)
** Current wind speed in m/s (hover to see current wind gust speed)